Vorticity
10 10 9 7 6 7 8 8 8 9 9 8 8 8 8 8 8 7 8 9 9 10 10 10 11 11 11
7 7 8 8 8 8 8 9 9 9 9 10 9 8 9 10 10 9 9 10 11 11 11 10 9 10 11
8 8 8 8 9 9 9 9 10 10 9 9 9 9 10 10 10 10 10 9 9 8 8 8 9 9 9
9 8 8 8 9 10 11 10 10 9 9 9 9 9 9 9 9 9 9 8 8 8 8 8 8 8 8
12 12 12 14 13 11 9 8 8 7 7 8 8 7 7 7 7 8 8 9 9 8 8 9 10 11 13
15 16 13 10 9 9 9 8 8 9 9 9 8 9 9 9 9 9 8 9 10 12 13 14 14 13 11
10 9 8 7 6 7 8 9 9 10 10 10 9 9 9 10 11 12 13 13 13 13 11 9 8 7 8
6 6 6 7 9 10 10 9 9 8 8 9 10 11 10 11 11 12 11 10 9 7 7 8 10 11 11
5 6 9 9 9 8 7 8 8 8 9 8 10 10 10 11 11 9 7 7 8 10 11 11 10 10 9
7 9 9 7 7 7 8 8 9 10 9 8 8 10 10 8 7 8 10 11 10 10 10 10 9 8 8
8 8 7 8 9 9 9 9 9 8 9 11 11 10 6 7 10 12 11 10 10 10 9 8 8 8 8
8 7 8 8 8 8 10 10 11 12 13 10 7 7 10 11 10 9 9 8 8 8 8 8 8 9 9
7 7 7 8 9 12 10 9 14 11 6 6 9 9 9 9 8 8 7 6 8 8 8 9 9 10 8
6 8 8 13 11 11 14 11 7 7 8 8 8 8 8 8 7 8 8 9 9 10 10 10 11 10 9
9 11 13 14 14 9 7 7 8 9 9 8 8 7 8 7 7 7 8 9 8 8 10 10 10 9 9
13 15 14 8 7 8 9 9 9 9 8 8 8 7 6 6 7 8 9 10 9 10 9 9 8 9 8
14 10 8 8 8 9 9 8 8 7 7 8 8 7 6 6 6 8 9 9 10 10 10 9 8 8 8
Height
3179 3179 3178 3178 3178 3177 3176 3175 3174 3173 3172 3170 3169 3167 3166 3164 3162 3161 3159 3157 3155 3153 3151 3149 3147 3145 3142
3172 3172 3172 3171 3171 3170 3170 3168 3167 3166 3164 3163 3162 3161 3159 3158 3156 3154 3152 3150 3148 3145 3143 3141 3139 3137 3134
3165 3164 3164 3164 3163 3163 3162 3161 3160 3159 3158 3156 3155 3154 3152 3150 3149 3147 3145 3143 3141 3138 3136 3134 3132 3129 3126
3157 3157 3157 3156 3156 3156 3155 3154 3153 3152 3150 3149 3148 3146 3145 3143 3142 3140 3138 3136 3134 3132 3129 3127 3125 3122 3119
3150 3149 3150 3149 3149 3149 3148 3148 3147 3145 3144 3143 3141 3140 3138 3136 3134 3132 3131 3129 3126 3124 3122 3119 3116 3114 3111
3141 3141 3142 3143 3142 3142 3141 3141 3141 3139 3137 3136 3135 3133 3131 3129 3127 3125 3123 3120 3118 3116 3113 3110 3107 3105 3102
3134 3134 3135 3136 3136 3135 3134 3134 3132 3132 3131 3129 3127 3125 3122 3120 3118 3117 3115 3112 3110 3107 3105 3102 3100 3098 3095
3128 3128 3128 3129 3129 3128 3127 3126 3125 3124 3123 3122 3120 3118 3115 3113 3111 3109 3106 3104 3102 3100 3097 3095 3093 3090 3087
3120 3120 3121 3121 3121 3120 3119 3119 3118 3116 3114 3113 3112 3111 3108 3106 3104 3101 3099 3097 3094 3092 3089 3087 3085 3082 3079
3113 3113 3113 3113 3113 3113 3112 3111 3110 3109 3108 3106 3104 3102 3102 3099 3097 3095 3093 3089 3087 3084 3081 3079 3076 3073 3071
3105 3105 3106 3106 3106 3105 3104 3103 3102 3101 3100 3098 3097 3094 3092 3091 3091 3088 3085 3082 3080 3077 3074 3071 3068 3064 3061
3097 3098 3098 3098 3098 3097 3096 3095 3094 3093 3090 3089 3088 3086 3084 3083 3082 3081 3078 3075 3072 3069 3067 3064 3061 3057 3053
3090 3090 3090 3089 3089 3088 3087 3086 3085 3083 3081 3080 3079 3078 3076 3075 3072 3072 3068 3068 3064 3061 3058 3055 3052 3048 3045
3081 3081 3081 3081 3081 3079 3078 3076 3076 3074 3072 3072 3071 3069 3068 3065 3063 3062 3058 3056 3054 3051 3047 3045 3042 3038 3034
3072 3073 3073 3072 3071 3070 3069 3068 3068 3068 3066 3062 3061 3059 3057 3056 3054 3051 3049 3046 3042 3039 3036 3033 3032 3028 3023
3064 3064 3063 3063 3062 3062 3061 3060 3060 3058 3057 3056 3053 3049 3046 3046 3042 3041 3039 3035 3031 3028 3024 3019 3018 3017 3012
3054 3055 3055 3054 3053 3054 3052 3051 3051 3049 3048 3046 3043 3039 3036 3035 3035 3033 3028 3024 3020 3017 3013 3009 3006 3004 2999